Theta_e
288 282 279 282 285 286 286 285 285 290 297 295 295 296 298 301 296 299 305 310 311 308 309 313 315 327 328 328 328 329 329 330 330 328 324 323 324 329 330 331 331 331 329 329
285 280 284 288 287 287 287 284 285 289 295 295 294 294 298 298 294 297 302 307 306 305 304 305 308 309 310 313 324 327 328 329 329 329 328 326 325 327 331 332 331 332 331 330
282 285 289 289 287 285 286 284 285 287 294 296 294 293 295 298 296 297 299 301 301 302 301 301 300 301 304 306 310 313 320 328 329 329 328 329 330 327 327 330 330 330 330 330
285 290 288 287 286 288 282 289 287 287 287 285 293 284 293 295 293 293 293 292 295 295 297 298 298 298 300 301 305 309 311 314 317 324 328 326 325 324 326 327 328 330 331 331
283 287 287 286 287 290 287 292 289 289 286 286 286 284 289 294 288 291 289 290 291 292 292 292 295 297 297 299 301 305 309 309 310 315 320 326 325 327 328 326 327 328 328 330
286 293 291 289 292 293 293 291 289 289 287 280 285 281 286 290 291 288 288 288 289 291 291 291 292 294 295 297 299 301 302 303 306 309 310 312 316 319 320 320 323 324 326 325
285 287 291 293 289 292 290 285 278 276 277 277 285 279 282 288 293 289 288 287 286 289 290 290 290 291 291 292 295 299 299 299 301 303 303 306 307 309 308 310 316 319 321 318
276 278 285 290 290 286 287 285 278 273 274 276 283 278 280 287 292 290 288 288 287 287 288 289 289 290 290 291 292 295 296 297 299 298 298 302 302 302 302 302 304 304 307 308
277 278 288 290 293 291 285 281 287 279 277 277 278 280 285 286 287 288 287 287 286 286 287 287 287 288 289 290 291 292 294 295 296 297 297 296 297 297 297 298 299 299 301 303
283 279 286 289 291 290 286 288 279 281 270 272 276 278 279 282 283 287 288 287 287 287 286 286 287 287 289 290 291 292 293 292 293 294 295 294 294 294 294 295 294 295 297 298
286 283 282 286 285 282 284 281 282 282 279 275 273 277 287 285 285 285 288 289 288 287 287 287 287 288 288 289 290 290 290 291 291 292 292 291 291 291 292 291 291 292 293 294
286 283 278 281 288 288 287 284 283 275 272 276 279 277 287 286 286 286 284 286 288 288 287 287 287 288 288 288 289 289 289 289 290 290 290 289 289 289 289 289 289 290 289 291
285 277 273 279 283 287 284 286 286 284 280 275 273 277 287 286 285 285 283 283 283 284 285 286 286 287 287 287 288 288 289 290 290 289 289 288 288 287 287 287 287 288 288 288
287 281 272 273 279 284 281 283 284 278 272 276 278 280 283 284 283 284 283 283 283 283 284 284 284 284 285 286 287 287 288 289 288 287 287 286 286 287 286 286 286 286 287 287
281 274 280 281 283 283 282 281 283 279 275 273 279 278 281 284 284 284 283 284 284 283 283 283 283 283 283 284 284 285 286 286 286 285 285 284 285 285 285 286 286 286 286 286
282 270 275 277 282 282 278 279 281 280 280 278 279 278 285 286 286 285 285 285 284 284 284 284 283 282 282 283 283 283 283 283 284 283 283 283 283 282 282 283 284 285 285 285
277 270 268 272 275 274 273 276 278 281 282 281 276 281 284 282 284 285 286 286 286 285 284 283 283 282 281 281 282 282 282 282 281 281 281 281 281 281 281 281 282 283 283 283
273 269 268 266 266 263 276 278 278 281 282 283 283 282 284 284 283 284 285 286 286 285 284 283 282 282 280 280 281 281 281 280 280 280 280 281 281 281 281 280 280 280 280 280
279 272 268 268 259 268 274 275 277 277 279 282 280 281 283 283 283 282 284 285 284 284 285 283 282 282 280 280 280 280 279 279 279 279 279 280 280 280 279 279 278 278 278 279
277 276 270 263 262 260 271 275 278 278 273 280 280 280 282 283 279 280 282 282 282 283 283 281 281 281 280 279 280 279 279 279 278 278 279 280 280 279 278 278 278 279 279 279
263 263 264 262 259 265 274 278 277 268 273 279 279 281 281 279 280 280 281 281 281 281 281 281 281 280 280 280 280 279 278 278 279 279 279 279 279 279 278 278 278 278 278 278
265 262 259 259 259 262 275 277 275 278 278 279 279 279 279 278 279 279 279 280 280 280 280 280 280 280 279 280 280 279 278 278 278 277 276 275 276 278 278 277 276 276 276 275
267 269 266 269 269 275 275 277 278 279 279 278 279 279 279 278 276 277 276 276 276 276 278 277 277 277 277 277 278 278 277 276 275 274 272 271 273 276 276 275 275 274 274 274
270 270 268 268 271 272 274 275 277 278 279 279 279 279 279 277 274 275 273 274 273 271 271 269 271 272 272 272 275 274 274 274 273 272 271 270 271 271 272 275 276 274 273 272
271 270 268 269 270 269 271 273 275 276 276 276 274 275 276 277 276 275 274 272 271 270 268 267 268 269 271 269 270 270 273 273 272 273 272 274 272 271 272 273 274 275 274 275
270 271 271 270 275 274 274 270 270 271 271 271 272 273 272 274 276 274 272 271 271 270 269 269 269 268 270 268 270 270 272 274 273 273 275 276 276 275 275 274 272 279 280 281
Wind_Speed
7 8 13 22 23 11 18 16 15 13 11 20 14 10 11 12 5 2 5 8 10 12 7 5 6 8 13 12 12 10 10 9 7 3 4 3 3 4 4 4 8 7 7 6
6 17 17 12 15 15 17 10 10 4 11 22 19 12 6 9 8 4 5 9 8 10 10 8 9 11 11 9 6 11 11 10 8 5 3 3 4 2 5 4 6 7 8 7
12 10 16 14 17 16 11 11 6 5 10 6 21 10 9 6 6 10 12 12 13 9 8 4 7 9 11 11 9 8 5 6 6 5 4 2 4 3 2 3 3 4 8 7
4 6 19 12 14 9 14 16 6 8 6 10 5 6 9 8 6 8 8 9 10 9 8 1 9 10 10 10 8 8 8 8 7 3 5 5 4 4 4 4 3 4 8 9
1 13 14 7 17 18 6 15 14 11 3 4 3 6 6 13 8 10 7 8 9 10 9 9 9 9 12 9 8 6 8 9 8 6 5 1 2 1 3 3 5 7 6 5
2 2 8 10 14 15 6 9 9 7 4 1 6 5 7 8 7 8 7 8 8 9 9 9 8 9 9 10 9 6 9 9 9 8 8 7 7 4 3 3 3 2 3 5
3 2 3 12 5 5 7 1 3 4 3 3 3 9 3 6 6 12 12 8 10 9 5 10 8 8 8 10 13 7 8 11 11 9 8 7 8 7 7 4 2 3 2 3
5 3 4 0 2 6 2 2 3 4 4 2 2 4 3 5 7 12 12 9 11 10 8 7 8 8 7 10 10 8 9 12 11 9 8 7 8 5 4 5 4 4 4 6
4 5 2 4 5 2 2 2 3 7 2 5 3 4 4 6 7 9 9 9 11 9 7 7 8 8 7 10 12 10 11 10 12 6 8 8 8 8 6 6 6 5 5 5
4 3 5 6 3 5 6 4 3 5 3 4 4 4 3 4 6 7 8 10 9 6 6 6 7 8 6 7 6 8 9 9 9 7 7 8 7 8 6 5 8 7 6 7
5 4 5 1 7 5 6 4 5 6 2 4 5 2 5 3 7 8 8 8 8 7 5 4 5 6 5 6 3 6 5 3 7 3 6 8 6 9 6 8 9 7 7 8
7 4 4 6 4 5 4 6 4 5 5 3 4 3 4 6 7 10 10 9 6 6 6 5 5 4 4 4 4 6 4 6 4 5 8 8 11 10 9 6 8 7 7 7
7 5 3 4 6 9 8 5 3 3 3 3 5 5 4 7 8 8 10 8 7 8 7 6 6 4 4 4 4 4 5 5 5 5 8 8 9 9 7 7 9 8 7 7
5 5 3 4 2 2 4 6 7 6 6 1 6 10 5 5 7 6 6 8 6 5 7 6 5 6 5 4 4 4 5 4 4 4 8 10 9 8 9 6 6 6 6 8
6 6 7 8 9 9 7 7 11 7 2 7 5 7 5 5 7 6 6 7 8 7 5 5 5 4 5 5 5 6 5 5 6 8 8 8 7 7 6 5 5 6 7 7
5 1 2 10 9 11 12 12 8 9 11 10 11 8 6 5 7 6 5 5 7 7 6 6 5 6 6 5 4 4 4 5 6 6 6 6 6 6 5 5 5 6 7 7
4 4 4 3 6 6 9 8 7 4 7 6 4 6 5 5 7 5 6 6 6 6 5 6 6 5 6 5 4 5 4 4 5 5 5 5 5 6 5 5 5 6 6 7
3 4 3 2 4 7 4 2 4 5 6 7 11 5 6 7 5 6 6 6 6 6 6 6 5 6 6 5 5 5 5 6 5 5 5 4 5 6 5 5 5 6 5 6
5 4 4 5 2 3 3 4 3 4 4 3 6 6 6 6 6 6 4 4 3 4 4 5 6 5 5 6 6 6 5 5 5 5 5 4 5 5 5 5 5 4 5 5
6 7 6 4 7 3 3 3 3 2 3 5 4 5 6 5 3 2 2 3 5 5 4 6 6 5 6 5 6 6 6 6 5 5 5 5 5 5 5 5 5 3 3 4
6 6 5 3 4 6 4 4 4 8 4 3 3 3 3 3 1 5 5 5 3 3 5 5 5 5 5 5 5 5 5 5 5 5 4 4 5 5 5 4 3 4 4 4
3 4 1 3 6 4 2 3 4 3 0 1 3 3 5 6 5 5 6 5 5 6 5 5 5 5 5 5 5 5 5 5 6 5 5 4 3 3 3 5 2 4 5 5
3 5 4 6 7 4 3 2 1 1 2 2 5 4 6 6 2 3 4 3 3 3 3 1 4 5 3 3 4 5 5 6 6 6 4 3 3 4 4 5 4 3 3 3
4 2 1 6 5 4 3 2 1 1 2 3 3 5 5 5 4 2 2 2 1 2 3 2 4 3 4 4 4 4 6 4 6 7 5 3 3 2 2 1 2 3 2 1
4 3 3 5 6 4 5 4 4 3 1 2 2 2 4 6 2 3 2 3 4 3 1 3 5 4 6 4 5 4 6 6 5 4 4 5 4 4 3 2 3 3 3 4
5 7 5 6 4 5 4 2 1 5 4 5 4 0 2 4 6 4 3 3 2 4 1 1 3 3 5 5 5 5 6 7 6 5 4 5 5 4 4 3 2 6 8 9
Wind_Direction
165 197 204 208 204 231 186 238 209 247 223 198 180 138 154 159 73 72 156 104 118 93 46 6 57 159 138 143 142 155 153 164 169 143 157 150 170 155 132 161 171 175 178 182
163 221 215 210 197 226 240 256 212 286 217 185 170 170 138 117 107 60 110 109 99 89 37 13 57 85 70 67 126 152 162 163 182 167 151 155 156 169 172 167 180 180 173 180
213 236 194 206 209 197 227 227 202 188 138 171 154 180 146 95 103 91 74 80 68 85 81 320 79 34 66 58 49 61 71 156 165 157 138 125 121 96 132 171 181 189 180 183
148 256 184 201 199 194 220 207 216 173 188 151 192 147 144 150 134 117 108 92 95 74 68 349 48 32 38 46 32 53 55 58 44 31 157 161 167 155 185 190 202 206 189 188
167 204 178 182 205 190 253 183 203 171 83 103 141 127 128 139 146 150 121 108 101 93 74 31 34 43 32 35 37 29 63 52 36 44 34 166 185 169 48 33 241 208 191 159
296 320 161 162 163 172 134 161 171 105 123 150 156 131 151 170 160 126 102 101 98 97 102 71 42 36 41 28 37 21 61 51 50 40 40 56 60 68 76 36 27 88 84 88
47 61 345 124 133 155 145 198 91 66 44 55 142 59 57 33 105 139 132 123 103 101 88 86 50 50 34 33 44 15 45 59 51 42 46 50 66 66 68 42 11 50 128 62
24 117 355 23 176 127 146 84 81 111 132 94 281 94 86 79 59 99 87 95 89 85 80 89 86 61 59 50 52 26 33 56 58 52 43 49 55 65 58 50 47 47 58 55
352 74 351 29 102 109 134 51 224 104 43 81 95 60 75 108 86 115 120 102 83 73 70 87 80 59 29 48 43 21 31 42 47 58 57 52 57 59 54 52 59 49 40 69
297 73 6 344 281 12 118 148 114 29 87 90 65 78 98 163 145 145 163 127 119 110 96 78 71 71 53 63 56 56 41 35 51 49 62 59 63 75 65 54 75 52 38 52
336 7 8 279 32 7 7 33 44 108 89 129 122 60 348 77 157 155 157 139 148 148 139 104 90 73 67 66 51 83 93 70 66 76 85 91 81 71 71 61 58 54 47 49
344 43 56 40 321 254 8 22 50 95 307 35 75 83 29 74 108 112 99 111 134 133 134 120 102 107 96 92 70 67 44 56 71 68 76 65 56 53 53 48 66 68 60 57
320 13 46 25 4 359 43 349 9 103 71 17 102 119 85 84 87 93 111 113 120 137 133 126 132 121 104 72 65 79 69 61 41 49 68 75 79 69 62 61 51 57 68 64
83 34 104 102 14 335 53 13 356 81 70 54 64 121 96 90 108 113 119 123 128 128 120 121 121 117 108 108 110 91 83 80 94 94 72 60 61 63 51 56 65 73 81 87
80 64 36 35 52 76 62 13 36 56 177 97 149 101 108 128 136 143 145 136 125 119 121 124 113 101 93 71 53 61 52 54 54 63 66 64 58 61 59 58 66 74 77 80
8 138 76 35 38 68 69 20 26 43 63 74 96 72 116 100 94 106 130 125 119 126 128 116 115 110 97 93 82 67 49 67 79 69 68 73 77 81 81 67 56 66 73 74
52 97 54 40 348 359 37 358 356 38 51 128 112 152 125 81 79 60 80 88 115 125 129 136 138 134 121 120 118 99 84 69 71 85 94 87 83 84 80 85 79 73 73 79
84 72 65 168 24 47 258 311 312 64 52 65 91 91 111 113 89 62 42 94 92 114 128 135 135 128 127 123 113 111 98 90 87 82 82 88 100 96 81 72 75 73 70 81
33 101 55 98 100 243 22 350 14 25 22 47 113 108 107 127 106 40 32 48 82 85 101 129 133 126 130 131 128 110 103 104 103 104 99 98 99 102 102 88 84 84 87 77
31 51 105 39 91 123 248 285 321 286 35 334 118 143 146 165 83 209 120 89 79 72 86 112 120 120 128 146 140 128 139 133 139 146 133 126 121 114 109 108 98 68 71 103
350 359 92 38 98 298 261 297 311 73 221 336 134 140 146 101 150 138 123 79 90 93 103 107 117 133 144 146 141 136 147 160 152 136 126 118 122 124 129 116 109 114 98 86
139 95 293 48 64 349 292 337 76 216 214 86 87 80 97 109 103 105 112 106 111 114 113 128 133 146 156 160 156 159 170 153 142 129 116 115 112 124 128 129 116 127 128 123
11 168 187 150 208 243 260 98 204 195 141 85 107 120 129 126 134 133 143 125 123 130 132 97 151 154 179 179 169 173 192 152 141 131 141 152 143 145 152 142 147 131 135 148
301 155 111 53 295 246 237 212 186 289 119 77 104 145 147 144 177 166 189 239 225 180 178 183 136 172 208 210 186 200 165 153 146 150 158 154 136 147 150 144 163 143 159 169
201 105 187 272 286 333 283 222 193 214 65 76 34 116 152 131 180 183 240 259 248 250 230 164 186 205 228 209 206 186 163 152 158 164 168 182 185 189 193 206 185 193 217 185
184 188 154 222 225 160 234 242 193 161 214 217 153 253 277 154 173 164 232 251 251 244 248 235 237 232 242 222 221 212 182 171 165 172 188 199 196 197 191 189 260 252 235 230